User: anonymous   Login
Location: Unnamed
(48.3966°N, 15.7007°E)
Time: 19:08:11
(UTC+02:00)
Language:

ISS - Orbit

View from above orbital plane
View from above orbital plane
View from above satellite
View from above satellite

Ground track
Ground track

The orbit data is extracted from the following two-line orbital elements,

1 25544U 98067A   20186.49853975  .00016717  00000-0  10270-3 0  9037
2 25544  51.6434 262.7837 0002343 114.1103 246.0293 15.49492111 34698
Epoch (UTC): 04 July 2020 11:57:53
Eccentricity: 0.0002343
inclination: 51.6434°
perigee height: 416 km
apogee height: 420 km
right ascension of ascending node: 262.7837°
argument of perigee: 114.1103°
revolutions per day: 15.49492111
mean anomaly at epoch: 246.0293°
orbit number at epoch: 3469

The dashed part of the orbit path shows where the satellite is in the earth's shadow,  

DLR